Tracking 27124 objects as of 31-Mar-2023
HD Live streaming from Space Station
objects crossing your sky now

SL-8 DEB

Track SL-8 DEB now!
10-day predictions


NORAD ID: 29284
Int'l Code: 1981-120N
Perigee: 1,647.1 km
Apogee: 1,707.0 km
Inclination: 83.0 °
Period: 119.8 minutes
Semi major axis: 8048 km
RCS: 0.0077 m2 (small)
Launch date: December 17, 1981
Source: Commonwealth of Independent States (former USSR) (CIS)
Launch site: PLESETSK MISSILE AND SPACE COMPLEX (PKMTR)

Note: This is SATELLITE DEBRIS
Your satellite tracking list
Your tracking list is empty




NASA's NSSDC Master Catalog

Two Line Element Set (TLE):
1 29284U 81120N   23089.35373757 -.00000024  00000-0 -40604-3 0  9994
2 29284  82.9608  52.5377 0037175  48.3842 105.1327 12.02450032405312
Source of the keplerian elements: AFSPC